[[{"header":{"parameterUnit":"m.s-1","parameterCategory":2,"la1":30.2991,"la2":30.254,"lo1":-89.0895,"lo2":-89.0444,"dy":0.0017,"dx":0.0017,"nx":28,"ny":28,"refTime":"2024-02-06T09:00:00:Z","depth":"0","parameterNumber":2,"parameterNumberName":"U-component_of_CURRENTS"},"data":[0,0,0,0,0,0,0,0,0,0,0,0,0,0,0,0,0,0,0,0,0,0,0,0,0,0,0,0,0,0,0,0,0,0,0,0,0,0,0,0,0,0,0,0,0,0,0,0,0,0,0,0,0,0,0,0,0,0,-0.2497,-0.2498,0,-0.2538,-0.2538,-0.2538,-0.2508,-0.2507,-0.2506,-0.2505,-0.2502,-0.2503,-0.2504,0,0,0,0,0,0,0,0,0,0,0,0,0,-0.2431,-0.2432,-0.2497,-0.2498,-0.2499,-0.2538,-0.2538,-0.2538,-0.2509,-0.2507,-0.2506,-0.2505,-0.2502,-0.2503,-0.2505,0,0,0,0,0,0,0,0,0,0,0,0,0,-0.2463,-0.2433,-0.2497,-0.249,-0.249,-0.2537,-0.2538,-0.2538,-0.2509,-0.2507,-0.2505,-0.2504,-0.2502,-0.2503,-0.2505,-0.2549,0,0,-0.2509,-0.251,0,0,0,0,0,0,0,0,-0.2461,-0.2465,-0.249,-0.249,-0.249,-0.2518,-0.2514,-0.254,-0.2509,-0.25,-0.2505,-0.2503,-0.2506,-0.2507,-0.2517,-0.2549,-0.2549,-0.2509,-0.251,-0.2511,-0.2511,0,0,0,0,0,0,0,-0.2459,-0.2463,-0.2512,-0.2491,-0.2491,-0.2497,-0.2499,-0.2519,-0.251,-0.2501,-0.2499,-0.2507,-0.2505,-0.2515,-0.2516,-0.2548,-0.2509,-0.2511,-0.2512,-0.2512,-0.2615,-0.2616,0,0,0,0,0,0,-0.2458,-0.2462,-0.251,-0.2513,-0.2473,-0.25,-0.2502,-0.2509,-0.2511,-0.251,-0.2508,-0.2505,-0.2514,-0.2515,-0.2516,-0.255,-0.2511,-0.2512,-0.2513,-0.2613,-0.2615,-0.2617,0,0,0,0,0,0,-0.2456,-0.2462,-0.2509,-0.2489,-0.2496,-0.2502,-0.2511,-0.2511,-0.2512,-0.2517,-0.2515,-0.2508,-0.2512,-0.2514,-0.2536,-0.255,-0.2513,-0.2515,-0.2611,-0.2613,-0.2616,-0.2629,0,0,0,0,0,0,-0.2454,-0.2461,-0.2462,-0.2489,-0.2497,-0.2536,-0.2513,-0.2513,-0.2521,-0.2517,-0.2518,-0.2516,-0.2511,-0.2534,-0.2538,-0.2551,-0.2516,-0.2608,-0.2612,-0.2615,-0.2627,-0.2632,-0.2637,0,0,0,0,0,-0.2451,-0.2461,-0.2461,-0.2467,-0.2499,-0.2538,-0.2542,-0.254,-0.2523,-0.2532,-0.2533,-0.2515,-0.2558,-0.2537,-0.2541,-0.2555,-0.2607,-0.2611,-0.2615,-0.2624,-0.2631,-0.2637,0,0,0,0,0,0,-0.2429,-0.2461,-0.2461,-0.2478,-0.2505,-0.2533,-0.2538,-0.2543,-0.2553,-0.2542,-0.2538,-0.2539,-0.2565,-0.2568,-0.2545,-0.2599,-0.258,-0.2585,-0.2586,-0.2593,-0.2598,-0.2576,-0.2517,0,0,0,0,0,-0.2428,-0.2441,-0.2476,-0.2488,-0.2501,-0.252,-0.2533,-0.2538,-0.2554,-0.2555,-0.2559,-0.2569,-0.2591,-0.2594,-0.2615,-0.2643,-0.2607,-0.2658,-0.2663,-0.2667,-0.2656,-0.2625,-0.2624,-0.263,-0.263,-0.263,0,0,-0.2422,-0.2441,-0.2447,-0.2484,-0.2499,-0.2532,-0.2522,-0.2545,-0.2569,-0.2556,-0.258,-0.2589,-0.2605,-0.2636,-0.2648,-0.2634,-0.2647,-0.2673,-0.2676,-0.2662,-0.2629,-0.2627,-0.2626,-0.2633,-0.2633,-0.2632,0,0,-0.2427,-0.2434,-0.2452,-0.248,-0.2513,-0.2533,-0.2541,-0.2574,-0.258,-0.2617,-0.2613,-0.2624,-0.2663,-0.2667,-0.2677,-0.2727,-0.2679,-0.2744,-0.2744,-0.2714,-0.2712,-0.271,-0.2649,-0.2641,-0.274,-0.2741,-0.2741,0,-0.2419,-0.2444,-0.2464,-0.2494,-0.2515,-0.2534,-0.2565,-0.2589,-0.2624,-0.263,-0.2625,-0.2665,-0.2675,-0.2699,-0.2717,-0.2733,-0.2699,-0.2713,-0.2716,-0.2713,-0.271,-0.2649,-0.264,-0.2742,-0.2742,-0.2741,-0.2741,0,-0.2441,-0.2465,-0.2478,-0.2521,-0.2551,-0.2578,-0.2619,-0.2641,-0.2651,-0.2666,-0.269,-0.2703,-0.2716,-0.2733,-0.274,-0.274,-0.2715,-0.2725,-0.2688,-0.271,-0.2644,-0.2635,-0.2743,-0.2743,-0.2743,-0.2742,0,0,-0.2408,-0.248,-0.2482,-0.2506,-0.2565,-0.2589,-0.2635,-0.2675,-0.2681,-0.2711,-0.2712,-0.2755,-0.274,-0.2751,-0.2757,-0.2734,-0.2686,-0.2722,-0.272,-0.2638,-0.2591,-0.2505,-0.2486,-0.2694,-0.2693,-0.2692,-0.2546,0,-0.2415,-0.2469,-0.2509,-0.2558,-0.2587,-0.2627,-0.2663,-0.2699,-0.2718,-0.2723,-0.2729,-0.2737,-0.2756,-0.2749,-0.2736,-0.2708,-0.2665,-0.2723,-0.2602,-0.2598,-0.25,-0.2473,-0.2395,-0.2253,-0.2537,-0.2535,-0.2534,0,-0.2417,-0.2452,-0.2502,-0.2567,-0.2581,-0.2612,-0.2651,-0.269,-0.2712,-0.2721,-0.2726,-0.2726,-0.2716,-0.2717,-0.2657,-0.2693,-0.2638,-0.2605,-0.2598,-0.2503,-0.2493,-0.2283,-0.2224,-0.2213,-0.2518,-0.252,-0.2521,0,-0.2366,-0.2444,-0.2478,-0.2502,-0.258,-0.2598,-0.2634,-0.2673,-0.2692,-0.2703,-0.2699,-0.2695,-0.2679,-0.2632,-0.2583,-0.2613,-0.2484,-0.2517,-0.2376,-0.2369,-0.2268,-0.2253,-0.2162,-0.2439,-0.244,-0.244,-0.244,0,-0.235,-0.2372,-0.2451,-0.2465,-0.2487,-0.256,-0.2575,-0.261,-0.2642,-0.2637,-0.2681,-0.2661,-0.2658,-0.2599,-0.255,-0.242,-0.2454,-0.2349,-0.2321,-0.2271,-0.2259,-0.2219,-0.2263,-0.2434,-0.2436,-0.2437,-0.2438,0,-0.2279,-0.234,-0.2372,-0.2444,-0.2462,-0.2471,-0.2533,-0.2539,-0.2591,-0.2582,-0.2582,-0.2616,-0.2542,-0.2504,-0.2408,-0.2362,-0.221,-0.2194,-0.2119,-0.2084,-0.1953,-0.2002,-0.188,-0.1821,-0.2012,-0.2009,-0.2006,0,-0.2245,-0.2256,-0.2322,-0.2331,-0.2357,-0.2389,-0.2402,-0.2483,-0.2496,-0.2539,-0.2518,-0.248,-0.2416,-0.2259,-0.2161,-0.2018,-0.2058,-0.1875,-0.1923,-0.1904,-0.1939,-0.1991,-0.1955,-0.179,-0.1786,-0.1782,-0.178,0,-0.2161,-0.2183,-0.2205,-0.2225,-0.2242,-0.2266,-0.2299,-0.2308,-0.2386,-0.2386,-0.2357,-0.2311,-0.2186,-0.2026,-0.1878,-0.1796,-0.1846,-0.1799,-0.1805,-0.1765,-0.1789,-0.1732,-0.192,-0.1749,-0.1753,-0.1755,-0.1756,-0.1758,-0.2072,-0.2063,-0.2092,-0.2097,-0.2119,-0.2121,-0.2086,-0.2136,-0.2132,-0.2097,-0.215,-0.2049,-0.1956,-0.174,-0.164,-0.1496,-0.1587,-0.1476,-0.1533,-0.1584,-0.1538,-0.1638,-0.1432,-0.1433,-0.1434,-0.1435,-0.1436,0,-0.1957,-0.1959,-0.1963,-0.1962,-0.1926,-0.1984,-0.1989,-0.1928,-0.1864,-0.1879,-0.1819,-0.1744,-0.1588,-0.1511,-0.137,-0.128,-0.1263,-0.1261,-0.1337,-0.131,-0.1397,-0.14,-0.1146,-0.1146,-0.1146,-0.1146,-0.1146,-0.1146,-0.1895,-0.1854,-0.1858,-0.1761,-0.1751,-0.1649,-0.1616,-0.1552,-0.1532,-0.1439,-0.1414,-0.1434,-0.1412,-0.1474,-0.1327,-0.1236,-0.1224,-0.1177,-0.1203,-0.1311,-0.1337,-0.1362,-0.1372,-0.1117,-0.1117,-0.1063,-0.1063,-0.1063]},{"header":{"parameterUnit":"m.s-1","parameterCategory":2,"la1":30.2991,"la2":30.254,"lo1":-89.0895,"lo2":-89.0444,"dy":0.0017,"dx":0.0017,"nx":28,"ny":28,"refTime":"2024-02-06T09:00:00:Z","depth":"0","parameterNumber":3,"parameterNumberName":"V-component_of_CURRENTS"},"data":[0,0,0,0,0,0,0,0,0,0,0,0,0,0,0,0,0,0,0,0,0,0,0,0,0,0,0,0,0,0,0,0,0,0,0,0,0,0,0,0,0,0,0,0,0,0,0,0,0,0,0,0,0,0,0,0,0,0,-0.056,-0.056,0,-0.0468,-0.0467,-0.0466,-0.0398,-0.0398,-0.0398,-0.0397,-0.0233,-0.0229,-0.0225,0,0,0,0,0,0,0,0,0,0,0,0,0,-0.0608,-0.0608,-0.056,-0.056,-0.0559,-0.0469,-0.0467,-0.0466,-0.0398,-0.0398,-0.0398,-0.0397,-0.0234,-0.023,-0.0225,0,0,0,0,0,0,0,0,0,0,0,0,0,-0.0557,-0.0608,-0.0561,-0.0516,-0.0511,-0.0469,-0.0467,-0.0465,-0.0399,-0.0398,-0.0397,-0.0397,-0.0236,-0.023,-0.0224,-0.0198,0,0,-0.0206,-0.0203,0,0,0,0,0,0,0,0,-0.056,-0.0555,-0.0523,-0.0519,-0.0513,-0.0446,-0.0424,-0.0373,-0.0399,-0.0439,-0.0397,-0.0397,-0.0299,-0.0288,-0.027,-0.0191,-0.0183,-0.0205,-0.0201,-0.0199,-0.0197,0,0,0,0,0,0,0,-0.0564,-0.0558,-0.0522,-0.0522,-0.0516,-0.0477,-0.0469,-0.0414,-0.037,-0.0435,-0.0431,-0.0424,-0.0296,-0.0276,-0.0265,-0.0181,-0.0205,-0.02,-0.0196,-0.0194,-0.0046,-0.0045,0,0,0,0,0,0,-0.0584,-0.0562,-0.0525,-0.0519,-0.0538,-0.0477,-0.0468,-0.0467,-0.0372,-0.0359,-0.0425,-0.0422,-0.0287,-0.0273,-0.0259,-0.0211,-0.0199,-0.0193,-0.019,-0.0046,-0.0046,-0.0045,0,0,0,0,0,0,-0.0586,-0.0582,-0.0528,-0.054,-0.0531,-0.0477,-0.0475,-0.0465,-0.0446,-0.0366,-0.035,-0.0417,-0.0286,-0.0268,-0.0211,-0.0205,-0.0191,-0.0185,-0.0046,-0.0046,-0.0045,-0.0122,0,0,0,0,0,0,-0.0587,-0.0583,-0.0589,-0.0542,-0.0531,-0.0511,-0.0476,-0.0464,-0.0444,-0.0438,-0.0354,-0.0338,-0.0284,-0.0221,-0.0205,-0.0196,-0.018,-0.0047,-0.0046,-0.0045,-0.012,-0.0125,-0.0128,0,0,0,0,0,-0.059,-0.0601,-0.059,-0.0585,-0.0541,-0.0512,-0.0503,-0.046,-0.0444,-0.044,-0.0381,-0.034,-0.0206,-0.0216,-0.0198,-0.0187,-0.0047,-0.0046,-0.0046,-0.0119,-0.0124,-0.0128,0,0,0,0,0,0,-0.0619,-0.0594,-0.058,-0.0582,-0.0554,-0.0502,-0.0495,-0.0468,-0.042,-0.0413,-0.0337,-0.0317,-0.0266,-0.0216,-0.023,-0.0142,-0.0119,-0.0115,-0.0181,-0.0185,-0.0189,-0.0212,-0.0175,0,0,0,0,0,-0.0632,-0.0637,-0.0601,-0.0602,-0.0593,-0.0547,-0.053,-0.0504,-0.0457,-0.0435,-0.0376,-0.031,-0.0248,-0.0211,-0.0155,-0.0107,-0.0056,-0.0086,-0.009,-0.0094,-0.01,-0.0015,-0.0012,-0.0043,-0.0043,-0.0043,0,0,-0.0643,-0.0631,-0.0632,-0.0609,-0.0584,-0.0577,-0.0535,-0.0518,-0.0504,-0.0424,-0.0386,-0.0325,-0.0241,-0.0188,-0.016,-0.0145,-0.0061,-0.0093,-0.0097,-0.0101,-0.0014,-0.0011,-0.0008,-0.0042,-0.0042,-0.0042,0,0,-0.0673,-0.0659,-0.0675,-0.0658,-0.0633,-0.0602,-0.0603,-0.0557,-0.0529,-0.0489,-0.0424,-0.0359,-0.0277,-0.0207,-0.0162,-0.0152,-0.0091,-0.0138,-0.0168,-0.0086,-0.0083,-0.008,-0.0026,-0.0017,-0.0134,-0.0134,-0.0134,0,-0.0688,-0.0703,-0.0673,-0.0682,-0.0671,-0.0621,-0.0628,-0.0593,-0.0532,-0.0503,-0.0489,-0.0351,-0.0281,-0.0198,-0.0197,-0.016,-0.0119,-0.016,-0.0093,-0.0088,-0.0083,-0.0029,-0.0018,-0.0137,-0.0137,-0.0137,-0.0136,0,-0.0726,-0.0737,-0.0744,-0.074,-0.0723,-0.0722,-0.0675,-0.0655,-0.0618,-0.0566,-0.0491,-0.0397,-0.0309,-0.0278,-0.0235,-0.0164,-0.0149,-0.0115,-0.0086,-0.0085,-0.0027,-0.0015,-0.0143,-0.0141,-0.014,-0.0139,0,0,-0.0763,-0.0773,-0.0776,-0.0785,-0.0755,-0.0745,-0.0729,-0.0685,-0.066,-0.0594,-0.0545,-0.0439,-0.038,-0.0326,-0.0253,-0.0186,-0.0119,-0.0149,-0.0143,-0.0108,0.0038,0.0076,0.0093,-0.0077,-0.0075,-0.0074,0.006,0,-0.0803,-0.0847,-0.0828,-0.0849,-0.0864,-0.0816,-0.0803,-0.0753,-0.0689,-0.0628,-0.0522,-0.0446,-0.0397,-0.0354,-0.0278,-0.0153,-0.0088,-0.016,0.0042,0.0048,0.0073,0.0109,0.0157,0.0282,0.0072,0.0074,0.0076,0,-0.0846,-0.0872,-0.0912,-0.0914,-0.0913,-0.0912,-0.0872,-0.0844,-0.0743,-0.0692,-0.0596,-0.0507,-0.039,-0.0355,-0.0151,-0.0204,-0.0097,-0.0008,0.0,0.0071,0.011,0.0253,0.0313,0.0471,0.0096,0.0094,0.0093,0,-0.0898,-0.0924,-0.0962,-0.0962,-0.0956,-0.0959,-0.0943,-0.0865,-0.0832,-0.072,-0.0681,-0.0528,-0.0444,-0.0297,-0.0116,-0.013,0.01,0.0117,0.0249,0.0252,0.0352,0.036,0.0583,0.0255,0.0255,0.0254,0.0254,0,-0.095,-0.0977,-0.0994,-0.1015,-0.1048,-0.1011,-0.1006,-0.0968,-0.0888,-0.0834,-0.0712,-0.0635,-0.0426,-0.0269,-0.012,0.0107,0.011,0.025,0.0299,0.0324,0.0329,0.0518,0.0568,0.0259,0.0258,0.0257,0.0256,0,-0.0999,-0.1013,-0.1055,-0.1072,-0.1078,-0.1096,-0.1074,-0.1056,-0.0981,-0.0908,-0.088,-0.0696,-0.0483,-0.0279,-0.0014,0.0115,0.0428,0.0392,0.039,0.0436,0.069,0.0731,0.0987,0.1095,0.0559,0.0561,0.0563,0,-0.1028,-0.1061,-0.1106,-0.1136,-0.1148,-0.1165,-0.1175,-0.1115,-0.1085,-0.0936,-0.0905,-0.0692,-0.0517,-0.0131,0.014,0.0418,0.0535,0.0608,0.0598,0.0724,0.0808,0.0833,0.0907,0.0698,0.0701,0.0703,0.0704,0,-0.1077,-0.1095,-0.1133,-0.1205,-0.1235,-0.1257,-0.1259,-0.1251,-0.1154,-0.1076,-0.0914,-0.076,-0.0377,-0.0015,0.0334,0.0499,0.0735,0.0658,0.0818,0.0959,0.0977,0.1097,0.0563,0.0723,0.0721,0.072,0.0719,0.0718,-0.1104,-0.115,-0.1205,-0.1264,-0.1303,-0.1329,-0.1331,-0.1293,-0.1229,-0.1069,-0.0925,-0.0648,-0.0145,0.0372,0.0562,0.0961,0.0913,0.1079,0.1124,0.1142,0.124,0.0724,0.0918,0.0917,0.0917,0.0916,0.0916,0,-0.1135,-0.1191,-0.1257,-0.1324,-0.1364,-0.1371,-0.1369,-0.1324,-0.1229,-0.104,-0.0848,-0.028,0.0203,0.0646,0.1195,0.1413,0.147,0.1518,0.1583,0.1643,0.1229,0.1229,0.1466,0.1466,0.1465,0.1465,0.1465,0.1465,-0.1155,-0.1231,-0.1271,-0.1352,-0.1392,-0.1404,-0.1392,-0.1296,-0.1154,-0.0808,-0.0479,-0.0212,0.0405,0.1276,0.1778,0.1829,0.2027,0.2007,0.2108,0.1827,0.179,0.1754,0.1769,0.2115,0.2116,0.2527,0.2531,0.2534]}],[{"header":{"parameterUnit":"m.s-1","parameterCategory":2,"la1":30.2991,"la2":30.254,"lo1":-89.0895,"lo2":-89.0444,"dy":0.0017,"dx":0.0017,"nx":28,"ny":28,"refTime":"2024-02-06T09:00:00:Z","depth":"2","parameterNumber":2,"parameterNumberName":"U-component_of_CURRENTS"},"data":[0,0,0,0,0,0,0,0,0,0,0,0,0,0,0,0,0,0,0,0,0,0,0,0,0,0,0,0,0,0,0,0,0,0,0,0,0,0,0,0,0,0,0,0,0,0,0,0,0,0,0,0,0,0,0,0,0,0,-0.224,-0.224,0,-0.2275,-0.2275,-0.2276,-0.2256,-0.2255,-0.2255,-0.2254,-0.2251,-0.2252,-0.2253,0,0,0,0,0,0,0,0,0,0,0,0,0,-0.2185,-0.2186,-0.224,-0.224,-0.2241,-0.2275,-0.2275,-0.2276,-0.2256,-0.2255,-0.2254,-0.2253,-0.2251,-0.2252,-0.2253,0,0,0,0,0,0,0,0,0,0,0,0,0,-0.2212,-0.2186,-0.224,-0.2236,-0.2237,-0.2275,-0.2275,-0.2276,-0.2257,-0.2255,-0.2254,-0.2253,-0.2251,-0.2252,-0.2253,-0.2285,0,0,-0.2256,-0.2257,0,0,0,0,0,0,0,0,-0.2211,-0.2214,-0.2236,-0.2237,-0.2237,-0.2261,-0.2255,-0.2277,-0.2257,-0.2248,-0.2254,-0.2252,-0.2253,-0.2254,-0.2262,-0.2285,-0.2285,-0.2256,-0.2257,-0.2257,-0.2258,0,0,0,0,0,0,0,-0.2209,-0.2213,-0.2252,-0.2237,-0.2237,-0.2243,-0.2245,-0.226,-0.2255,-0.2248,-0.2247,-0.2254,-0.2252,-0.2261,-0.2262,-0.2285,-0.2256,-0.2257,-0.2258,-0.2258,-0.2327,-0.2328,0,0,0,0,0,0,-0.2207,-0.2211,-0.2251,-0.2253,-0.2222,-0.2245,-0.2248,-0.2254,-0.2256,-0.2256,-0.2255,-0.2253,-0.226,-0.226,-0.2261,-0.2294,-0.2257,-0.2258,-0.2259,-0.2326,-0.2327,-0.2329,0,0,0,0,0,0,-0.2206,-0.2211,-0.225,-0.2234,-0.2239,-0.2248,-0.2255,-0.2255,-0.226,-0.2262,-0.226,-0.2259,-0.2259,-0.226,-0.2278,-0.2294,-0.2259,-0.226,-0.2325,-0.2326,-0.2328,-0.2362,0,0,0,0,0,0,-0.2204,-0.221,-0.2212,-0.2234,-0.224,-0.2274,-0.2256,-0.2257,-0.2267,-0.2264,-0.2265,-0.2264,-0.2258,-0.2276,-0.2279,-0.2294,-0.2261,-0.2323,-0.2325,-0.2327,-0.236,-0.2365,-0.237,0,0,0,0,0,-0.2202,-0.2211,-0.2212,-0.2217,-0.2244,-0.2275,-0.2279,-0.2279,-0.2268,-0.2278,-0.2278,-0.2263,-0.2292,-0.2278,-0.2281,-0.2297,-0.2322,-0.2325,-0.2327,-0.2358,-0.2364,-0.237,0,0,0,0,0,0,-0.2186,-0.2211,-0.2212,-0.2226,-0.225,-0.2272,-0.2278,-0.2284,-0.2293,-0.2287,-0.2282,-0.2282,-0.2303,-0.23,-0.2285,-0.2325,-0.2304,-0.2307,-0.2326,-0.2332,-0.2337,-0.232,-0.2262,0,0,0,0,0,-0.2186,-0.2196,-0.2225,-0.2235,-0.2247,-0.2264,-0.2275,-0.2282,-0.2295,-0.2297,-0.2301,-0.2306,-0.232,-0.2324,-0.2335,-0.2359,-0.2328,-0.2371,-0.2376,-0.238,-0.237,-0.235,-0.2352,-0.2337,-0.2337,-0.2337,0,0,-0.2182,-0.2197,-0.2203,-0.2233,-0.2246,-0.2273,-0.2267,-0.2288,-0.231,-0.2297,-0.232,-0.2326,-0.2331,-0.2356,-0.2365,-0.2353,-0.2368,-0.2384,-0.2387,-0.2374,-0.2353,-0.2354,-0.2355,-0.2339,-0.2339,-0.2339,0,0,-0.2186,-0.2194,-0.2208,-0.2231,-0.226,-0.2276,-0.2285,-0.2314,-0.2323,-0.2355,-0.2349,-0.2359,-0.2387,-0.2388,-0.2393,-0.2433,-0.2397,-0.2445,-0.2454,-0.2436,-0.2436,-0.2436,-0.239,-0.2385,-0.2445,-0.2445,-0.2445,0,-0.2182,-0.22,-0.2218,-0.2242,-0.226,-0.2279,-0.2304,-0.2327,-0.2359,-0.2366,-0.2364,-0.2394,-0.2398,-0.2418,-0.2433,-0.2442,-0.2417,-0.243,-0.244,-0.2439,-0.2439,-0.2391,-0.2385,-0.2447,-0.2447,-0.2447,-0.2446,0,-0.2198,-0.2217,-0.2228,-0.2263,-0.2289,-0.2311,-0.2349,-0.2371,-0.2384,-0.24,-0.2424,-0.2432,-0.2441,-0.2455,-0.2457,-0.2464,-0.2443,-0.2449,-0.2419,-0.2442,-0.239,-0.2384,-0.245,-0.2449,-0.2449,-0.2448,0,0,-0.2171,-0.2228,-0.223,-0.2249,-0.2299,-0.232,-0.2363,-0.2398,-0.2408,-0.244,-0.2448,-0.248,-0.2472,-0.2477,-0.2481,-0.2471,-0.2447,-0.2461,-0.2459,-0.2403,-0.2385,-0.2296,-0.228,-0.2458,-0.2457,-0.2457,-0.2347,0,-0.2174,-0.2215,-0.2249,-0.2288,-0.231,-0.2349,-0.2382,-0.2417,-0.244,-0.2453,-0.2463,-0.2474,-0.2486,-0.2486,-0.2481,-0.2461,-0.2433,-0.2474,-0.238,-0.2377,-0.2287,-0.2272,-0.2134,-0.2019,-0.234,-0.2339,-0.2338,0,-0.2172,-0.2198,-0.2237,-0.2292,-0.2304,-0.2332,-0.2372,-0.2409,-0.244,-0.2453,-0.2466,-0.2472,-0.2472,-0.2473,-0.2433,-0.2461,-0.242,-0.2396,-0.2392,-0.2289,-0.2276,-0.2052,-0.1995,-0.2327,-0.2328,-0.2329,-0.233,0,-0.2125,-0.2188,-0.2214,-0.2234,-0.2301,-0.2319,-0.2353,-0.2396,-0.2417,-0.2444,-0.2448,-0.2455,-0.2449,-0.2419,-0.2382,-0.2407,-0.2314,-0.234,-0.2212,-0.2205,-0.2056,-0.2036,-0.2285,-0.2285,-0.2286,-0.2286,-0.2286,0,-0.2105,-0.2122,-0.219,-0.22,-0.222,-0.2286,-0.2305,-0.2341,-0.238,-0.2383,-0.2435,-0.2425,-0.2438,-0.2398,-0.2361,-0.2253,-0.2292,-0.2191,-0.2168,-0.2064,-0.2047,-0.2297,-0.2299,-0.2282,-0.2283,-0.2284,-0.2284,0,-0.204,-0.2092,-0.2116,-0.2179,-0.2196,-0.2207,-0.2267,-0.2277,-0.2334,-0.2336,-0.2343,-0.2389,-0.2338,-0.2317,-0.2253,-0.2208,-0.2125,-0.2071,-0.1933,-0.1895,-0.2031,-0.2037,-0.1917,-0.1913,-0.191,-0.1907,-0.1904,0,-0.2008,-0.2015,-0.2073,-0.2081,-0.2104,-0.2136,-0.215,-0.2227,-0.2241,-0.2297,-0.2283,-0.2271,-0.2219,-0.21,-0.2015,-0.1898,-0.1996,-0.1718,-0.1743,-0.2002,-0.1992,-0.2004,-0.2014,-0.1554,-0.1549,-0.1545,-0.1542,0,-0.1931,-0.1952,-0.197,-0.1984,-0.2,-0.2022,-0.2054,-0.2058,-0.2137,-0.2146,-0.2131,-0.2098,-0.2002,-0.1833,-0.1713,-0.164,-0.1733,-0.1628,-0.1917,-0.1678,-0.1653,-0.1646,-0.1669,-0.1504,-0.1508,-0.1511,-0.1513,-0.1514,-0.1857,-0.1846,-0.1868,-0.1869,-0.189,-0.1885,-0.185,-0.1893,-0.1889,-0.1861,-0.1923,-0.1818,-0.1783,-0.152,-0.1408,-0.1329,-0.1454,-0.1407,-0.1422,-0.1442,-0.1429,-0.14,-0.1199,-0.1201,-0.1203,-0.1204,-0.1205,0,-0.1755,-0.1752,-0.1751,-0.1743,-0.1709,-0.1763,-0.176,-0.1698,-0.1635,-0.164,-0.1592,-0.1403,-0.1279,-0.1245,-0.1057,-0.1008,-0.1025,-0.0974,-0.1014,-0.105,-0.1083,-0.1056,-0.0725,-0.0723,-0.0722,-0.0721,0,0,-0.17,-0.1656,-0.1651,-0.1556,-0.1547,-0.1452,-0.1417,-0.1349,-0.1316,-0.1216,-0.116,-0.1215,-0.122,-0.0986,-0.0917,-0.0794,-0.0919,-0.0749,-0.1136,-0.122,-0.1251,-0.1329,-0.1327,0,0,0,0,0]},{"header":{"parameterUnit":"m.s-1","parameterCategory":2,"la1":30.2991,"la2":30.254,"lo1":-89.0895,"lo2":-89.0444,"dy":0.0017,"dx":0.0017,"nx":28,"ny":28,"refTime":"2024-02-06T09:00:00:Z","depth":"2","parameterNumber":3,"parameterNumberName":"V-component_of_CURRENTS"},"data":[0,0,0,0,0,0,0,0,0,0,0,0,0,0,0,0,0,0,0,0,0,0,0,0,0,0,0,0,0,0,0,0,0,0,0,0,0,0,0,0,0,0,0,0,0,0,0,0,0,0,0,0,0,0,0,0,0,0,-0.0391,-0.039,0,-0.0312,-0.0311,-0.031,-0.0251,-0.0251,-0.0251,-0.025,-0.0108,-0.0104,-0.0101,0,0,0,0,0,0,0,0,0,0,0,0,0,-0.043,-0.043,-0.0391,-0.039,-0.0389,-0.0312,-0.0311,-0.031,-0.0252,-0.0251,-0.0251,-0.025,-0.0109,-0.0105,-0.01,0,0,0,0,0,0,0,0,0,0,0,0,0,-0.0387,-0.043,-0.0391,-0.0352,-0.0348,-0.0312,-0.0311,-0.0309,-0.0252,-0.0251,-0.0251,-0.025,-0.011,-0.0105,-0.01,-0.0078,0,0,-0.0084,-0.0082,0,0,0,0,0,0,0,0,-0.0389,-0.0385,-0.0359,-0.0355,-0.035,-0.0293,-0.0272,-0.0229,-0.0252,-0.0286,-0.025,-0.025,-0.0165,-0.0155,-0.014,-0.0071,-0.0065,-0.0083,-0.008,-0.0078,-0.0077,0,0,0,0,0,0,0,-0.0393,-0.0388,-0.0358,-0.0358,-0.0353,-0.0318,-0.0312,-0.0264,-0.0227,-0.0283,-0.0279,-0.0274,-0.0162,-0.0145,-0.0136,-0.0063,-0.0084,-0.0079,-0.0076,-0.0074,0.0044,0.0044,0,0,0,0,0,0,-0.041,-0.0391,-0.036,-0.0356,-0.0371,-0.0318,-0.0311,-0.031,-0.0229,-0.0217,-0.0274,-0.0271,-0.0154,-0.0142,-0.0131,-0.0095,-0.0078,-0.0073,-0.007,0.0044,0.0044,0.0044,0,0,0,0,0,0,-0.0411,-0.0408,-0.0363,-0.0373,-0.0365,-0.0319,-0.0318,-0.0309,-0.0293,-0.0223,-0.0209,-0.0268,-0.0153,-0.0138,-0.0091,-0.0089,-0.0071,-0.0066,0.0044,0.0044,0.0044,-0.0026,0,0,0,0,0,0,-0.0413,-0.0409,-0.0415,-0.0374,-0.0365,-0.035,-0.0318,-0.0308,-0.0291,-0.0287,-0.0213,-0.0199,-0.0152,-0.0099,-0.0086,-0.0081,-0.0062,0.0044,0.0044,0.0044,-0.0023,-0.0028,-0.0032,0,0,0,0,0,-0.0414,-0.0426,-0.0416,-0.0412,-0.0375,-0.0351,-0.0343,-0.0306,-0.0292,-0.0289,-0.0239,-0.0202,-0.009,-0.0095,-0.0079,-0.0073,0.0044,0.0044,0.0044,-0.0021,-0.0027,-0.0032,0,0,0,0,0,0,-0.0441,-0.042,-0.0408,-0.0411,-0.0387,-0.0342,-0.0337,-0.0314,-0.0273,-0.0268,-0.02,-0.0183,-0.0143,-0.0099,-0.0107,-0.004,-0.0017,-0.0014,-0.0072,-0.0077,-0.0081,-0.0098,-0.0058,0,0,0,0,0,-0.0453,-0.0458,-0.0427,-0.043,-0.0422,-0.0382,-0.0369,-0.0346,-0.0305,-0.0287,-0.0236,-0.018,-0.013,-0.0099,-0.0052,-0.0013,0.0034,0.0001,-0.0003,-0.0007,-0.001,0.0068,0.007,0.0044,0.0044,0.0044,0,0,-0.0463,-0.0453,-0.0455,-0.0436,-0.0415,-0.041,-0.0372,-0.0359,-0.035,-0.0277,-0.0248,-0.0196,-0.0125,-0.0084,-0.0062,-0.0046,0.0022,-0.0007,-0.0012,-0.0012,0.0068,0.0071,0.0073,0.0044,0.0044,0.0044,0,0,-0.0491,-0.048,-0.0494,-0.0481,-0.046,-0.0435,-0.0436,-0.0397,-0.0374,-0.0342,-0.0287,-0.0232,-0.0164,-0.0106,-0.0069,-0.0067,-0.0009,-0.0058,-0.0084,-0.0009,-0.0006,-0.0003,0.0045,0.0053,-0.0054,-0.0054,-0.0054,0,-0.0504,-0.0518,-0.0493,-0.0503,-0.0496,-0.0452,-0.0461,-0.0432,-0.0381,-0.0359,-0.0344,-0.0229,-0.0171,-0.0103,-0.0105,-0.0075,-0.0037,-0.0072,-0.0015,-0.0011,-0.0006,0.0042,0.0052,-0.0057,-0.0057,-0.0057,-0.0056,0,-0.054,-0.0551,-0.0558,-0.0558,-0.0545,-0.0546,-0.0509,-0.0494,-0.0463,-0.042,-0.0358,-0.0276,-0.0203,-0.0178,-0.0141,-0.0081,-0.0067,-0.0036,-0.0005,-0.0008,0.0043,0.0055,-0.0062,-0.0061,-0.006,-0.0059,0,0,-0.0571,-0.0584,-0.0587,-0.0598,-0.0576,-0.057,-0.056,-0.0527,-0.0509,-0.0451,-0.0412,-0.0323,-0.0271,-0.0226,-0.0163,-0.01,-0.0039,-0.0066,-0.006,-0.0025,0.0105,0.0127,0.0142,0.0,0.0002,0.0004,0.0123,0,-0.0607,-0.0649,-0.0635,-0.066,-0.0675,-0.0637,-0.063,-0.0592,-0.054,-0.049,-0.0396,-0.0333,-0.029,-0.0252,-0.0182,-0.0071,-0.001,-0.0076,0.0109,0.0114,0.013,0.0157,0.0125,0.023,0.0134,0.0136,0.0138,0,-0.0647,-0.0671,-0.0711,-0.0719,-0.072,-0.0724,-0.0697,-0.0677,-0.0595,-0.0554,-0.0471,-0.0392,-0.0288,-0.0252,-0.0069,-0.0116,-0.0018,0.0064,0.0072,0.0126,0.0159,0.0223,0.0255,0.0158,0.0156,0.0155,0.0153,0,-0.0691,-0.0719,-0.0756,-0.0759,-0.076,-0.0768,-0.0757,-0.0698,-0.0674,-0.0582,-0.055,-0.0415,-0.0338,-0.0203,-0.0038,-0.005,0.0161,0.0177,0.0287,0.0289,0.0317,0.0319,0.0305,0.0305,0.0305,0.0305,0.0304,0,-0.0736,-0.0763,-0.0784,-0.0806,-0.0841,-0.0814,-0.0818,-0.079,-0.0727,-0.0685,-0.058,-0.0512,-0.0321,-0.0179,-0.0042,0.0159,0.0167,0.0289,0.0331,0.029,0.0287,0.027,0.0264,0.0309,0.0308,0.0307,0.0306,0,-0.0777,-0.0792,-0.0835,-0.0858,-0.0867,-0.0888,-0.0879,-0.0869,-0.081,-0.0753,-0.0727,-0.0568,-0.0378,-0.0192,0.005,0.0162,0.0345,0.0412,0.0335,0.0366,0.0418,0.0407,0.0547,0.0549,0.0551,0.0552,0.0554,0,-0.0801,-0.0831,-0.0881,-0.0912,-0.0926,-0.0949,-0.0964,-0.0921,-0.09,-0.0778,-0.0751,-0.0564,-0.0413,-0.007,0.0162,0.0408,0.0408,0.0512,0.0495,0.0421,0.0448,0.0434,0.0422,0.0498,0.0499,0.05,0.05,0,-0.0841,-0.0861,-0.0899,-0.0969,-0.1003,-0.1029,-0.1039,-0.1038,-0.0963,-0.0898,-0.076,-0.0627,-0.0302,-0.002,0.0282,0.0417,0.0467,0.0531,0.0509,0.0434,0.0383,0.0406,0.0394,0.0505,0.0504,0.0504,0.0504,0.0503,-0.0864,-0.0906,-0.096,-0.1018,-0.106,-0.1092,-0.1098,-0.1071,-0.1022,-0.0888,-0.0769,-0.0538,-0.0282,0.0165,0.037,0.0552,0.055,0.0596,0.0591,0.0587,0.0552,0.0506,0.0643,0.0643,0.0644,0.0644,0.0644,0,-0.0888,-0.094,-0.1003,-0.107,-0.1111,-0.1123,-0.1131,-0.1091,-0.1012,-0.0862,-0.0699,-0.0394,-0.0094,0.0163,0.046,0.0633,0.0607,0.0652,0.0586,0.058,0.0576,0.0538,0.0627,0.0627,0.0628,0.0628,0,0,-0.0906,-0.0973,-0.1009,-0.1088,-0.1129,-0.1147,-0.1141,-0.1056,-0.094,-0.076,-0.0585,-0.0369,-0.0064,0.0146,0.0356,0.0505,0.0495,0.0511,0.0506,0.0398,0.0392,0.0526,0.046,0,0,0,0,0]}],[{"header":{"parameterUnit":"m.s-1","parameterCategory":2,"la1":30.2991,"la2":30.254,"lo1":-89.0895,"lo2":-89.0444,"dy":0.0017,"dx":0.0017,"nx":28,"ny":28,"refTime":"2024-02-06T09:00:00:Z","depth":"4","parameterNumber":2,"parameterNumberName":"U-component_of_CURRENTS"},"data":[0,0,0,0,0,0,0,0,0,0,0,0,0,0,0,0,0,0,0,0,0,0,0,0,0,0,0,0,0,0,0,0,0,0,0,0,0,0,0,0,0,0,0,0,0,0,0,0,0,0,0,0,0,0,0,0,0,0,-0.1553,-0.1553,0,-0.1611,-0.1611,-0.1612,-0.1645,-0.1646,-0.1646,-0.1646,-0.1696,-0.1697,-0.1698,0,0,0,0,0,0,0,0,0,0,0,0,0,-0.1482,-0.1483,-0.1552,-0.1553,-0.1554,-0.1611,-0.1611,-0.1612,-0.1645,-0.1646,-0.1646,-0.1646,-0.1696,-0.1697,-0.1698,0,0,0,0,0,0,0,0,0,0,0,0,0,-0.1523,-0.1483,-0.1552,-0.1578,-0.1581,-0.1611,-0.1611,-0.1612,-0.1645,-0.1646,-0.1646,-0.1646,-0.1695,-0.1697,-0.1699,-0.1702,0,0,-0.1704,-0.1704,0,0,0,0,0,0,0,0,-0.152,-0.1525,-0.1574,-0.1577,-0.158,-0.1622,-0.1605,-0.1642,-0.1645,-0.162,-0.1646,-0.1646,-0.1671,-0.1675,-0.1684,-0.1705,-0.1707,-0.1704,-0.1705,-0.1706,-0.1706,0,0,0,0,0,0,0,-0.1517,-0.1523,-0.1574,-0.1575,-0.1578,-0.1591,-0.1597,-0.1612,-0.1642,-0.1622,-0.1625,-0.1633,-0.1673,-0.1682,-0.1685,-0.1708,-0.1704,-0.1705,-0.1706,-0.1707,-0.1789,-0.1791,0,0,0,0,0,0,-0.1512,-0.152,-0.1573,-0.1576,-0.1552,-0.1592,-0.1599,-0.1607,-0.1642,-0.1648,-0.1633,-0.1634,-0.1679,-0.1683,-0.1687,-0.1752,-0.1706,-0.1707,-0.1708,-0.1788,-0.179,-0.1791,0,0,0,0,0,0,-0.151,-0.1516,-0.157,-0.155,-0.1558,-0.1593,-0.1602,-0.1608,-0.1643,-0.165,-0.1656,-0.1664,-0.1679,-0.1684,-0.1725,-0.1752,-0.1708,-0.171,-0.1787,-0.1789,-0.179,-0.1844,0,0,0,0,0,0,-0.1508,-0.1515,-0.1532,-0.155,-0.1559,-0.1604,-0.1602,-0.1609,-0.1646,-0.165,-0.1678,-0.1682,-0.168,-0.1722,-0.1726,-0.1753,-0.1711,-0.1785,-0.1788,-0.179,-0.1841,-0.1848,-0.1853,0,0,0,0,0,-0.1505,-0.1521,-0.1532,-0.1539,-0.1577,-0.1605,-0.1611,-0.1636,-0.1648,-0.1667,-0.169,-0.1682,-0.1739,-0.1725,-0.1729,-0.1757,-0.1784,-0.1787,-0.179,-0.1838,-0.1846,-0.1853,0,0,0,0,0,0,-0.1501,-0.1527,-0.1539,-0.1564,-0.1591,-0.1611,-0.1635,-0.1652,-0.1686,-0.1696,-0.1701,-0.1707,-0.175,-0.1747,-0.1732,-0.1787,-0.1759,-0.1763,-0.1794,-0.1802,-0.1808,-0.1792,-0.1712,0,0,0,0,0,-0.1507,-0.1528,-0.1553,-0.1577,-0.1591,-0.1619,-0.1639,-0.1657,-0.1683,-0.17,-0.1722,-0.1742,-0.176,-0.1777,-0.1791,-0.1826,-0.1799,-0.1845,-0.1852,-0.1857,-0.1847,-0.1839,-0.1843,-0.18,-0.18,-0.18,0,0,-0.1514,-0.1531,-0.1545,-0.1578,-0.1601,-0.1627,-0.1632,-0.167,-0.1699,-0.1699,-0.1754,-0.1768,-0.1774,-0.1812,-0.183,-0.1817,-0.1855,-0.186,-0.1865,-0.1852,-0.1842,-0.1846,-0.185,-0.1801,-0.1801,-0.1801,0,0,-0.1527,-0.1552,-0.1572,-0.1596,-0.1635,-0.1652,-0.1669,-0.1708,-0.1735,-0.1784,-0.1789,-0.1817,-0.1857,-0.1861,-0.1867,-0.1915,-0.1888,-0.193,-0.1952,-0.1945,-0.1948,-0.1951,-0.1918,-0.1916,-0.1934,-0.1934,-0.1934,0,-0.1538,-0.156,-0.1584,-0.1608,-0.1632,-0.1665,-0.1693,-0.1725,-0.1776,-0.1795,-0.1809,-0.1861,-0.1873,-0.1898,-0.192,-0.1928,-0.1913,-0.1924,-0.1952,-0.1954,-0.1955,-0.1921,-0.1919,-0.1937,-0.1937,-0.1936,-0.1936,0,-0.1554,-0.1586,-0.1601,-0.164,-0.1671,-0.1701,-0.1742,-0.1783,-0.1821,-0.1845,-0.1894,-0.1913,-0.1935,-0.1953,-0.1955,-0.1978,-0.196,-0.196,-0.193,-0.1963,-0.1924,-0.1921,-0.1941,-0.194,-0.1939,-0.1939,0,0,-0.1536,-0.16,-0.1608,-0.1633,-0.169,-0.1712,-0.1768,-0.1813,-0.1842,-0.1898,-0.1927,-0.1971,-0.198,-0.1986,-0.1995,-0.1998,-0.2002,-0.1993,-0.1991,-0.1953,-0.1973,-0.184,-0.1823,-0.2015,-0.2015,-0.2015,-0.194,0,-0.1543,-0.1587,-0.1622,-0.1673,-0.1697,-0.1748,-0.179,-0.1839,-0.1882,-0.192,-0.1946,-0.1979,-0.1993,-0.201,-0.2017,-0.2008,-0.1998,-0.2021,-0.1951,-0.1948,-0.1822,-0.1817,-0.2015,-0.1937,-0.1936,-0.1936,-0.1935,0,-0.1537,-0.1568,-0.1617,-0.1682,-0.1698,-0.1737,-0.18,-0.1847,-0.1903,-0.1933,-0.1969,-0.199,-0.2012,-0.2017,-0.2005,-0.2024,-0.2,-0.1986,-0.1982,-0.1833,-0.1809,-0.1899,-0.1929,-0.193,-0.193,-0.1931,-0.1931,0,-0.1488,-0.1562,-0.1601,-0.1625,-0.1703,-0.1739,-0.1785,-0.1849,-0.1881,-0.1941,-0.1959,-0.1991,-0.2004,-0.1995,-0.1977,-0.1998,-0.194,-0.196,-0.1808,-0.1798,-0.1918,-0.1916,-0.1931,-0.1931,-0.1931,-0.1931,-0.1931,0,-0.1457,-0.1492,-0.1586,-0.1603,-0.1647,-0.1719,-0.1765,-0.1815,-0.1874,-0.1888,-0.1961,-0.1958,-0.2005,-0.1984,-0.1965,-0.1859,-0.1926,-0.1791,-0.1765,-0.1942,-0.1944,-0.1915,-0.1914,-0.1928,-0.1929,-0.193,-0.193,0,-0.1389,-0.1456,-0.1502,-0.1593,-0.1624,-0.1657,-0.1744,-0.1764,-0.1841,-0.1859,-0.1879,-0.1934,-0.19,-0.1907,-0.1875,-0.1818,-0.1748,-0.1693,-0.1856,-0.1845,-0.1614,-0.1617,-0.1512,-0.1507,-0.1502,-0.1499,-0.1495,0,-0.1352,-0.1373,-0.1476,-0.1502,-0.1546,-0.1609,-0.1637,-0.173,-0.1745,-0.1816,-0.1801,-0.1813,-0.1826,-0.1659,-0.1696,-0.1617,-0.1606,-0.156,-0.1608,-0.1583,-0.157,-0.158,-0.1589,-0.1488,-0.1487,-0.1486,-0.1484,0,-0.1274,-0.1327,-0.1364,-0.1414,-0.1458,-0.1496,-0.1548,-0.1543,-0.163,-0.1716,-0.1663,-0.1634,-0.1585,-0.1555,-0.1497,-0.1453,-0.1589,-0.1512,-0.1522,-0.1568,-0.1552,-0.1546,-0.156,-0.1468,-0.1471,-0.1472,-0.1473,0,-0.1215,-0.1221,-0.1276,-0.1305,-0.1359,-0.1357,-0.1403,-0.1406,-0.1432,-0.1517,-0.1489,-0.1503,-0.1556,-0.1465,-0.1414,-0.1354,-0.1346,-0.1314,-0.1335,-0.1353,-0.1337,-0.1296,-0.109,0,0,0,0,0,-0.1146,-0.1137,-0.1158,-0.118,-0.1227,-0.1253,-0.1326,-0.1374,-0.1455,-0.1371,-0.1426,-0.1371,-0.1301,-0.1318,-0.122,-0.1344,-0.1354,-0.1226,-0.1331,-0.138,-0.1399,-0.1396,0,0,0,0,0,0,-0.1099,-0.1117,-0.1115,-0.1065,-0.1055,-0.1084,-0.1125,-0.1187,-0.1152,-0.1243,-0.1208,-0.128,-0.123,-0.132,-0.1186,-0.1188,-0.1224,-0.1246,-0.1242,-0.137,-0.1386,-0.1401,-0.1405,0,0,0,0,0]},{"header":{"parameterUnit":"m.s-1","parameterCategory":2,"la1":30.2991,"la2":30.254,"lo1":-89.0895,"lo2":-89.0444,"dy":0.0017,"dx":0.0017,"nx":28,"ny":28,"refTime":"2024-02-06T09:00:00:Z","depth":"4","parameterNumber":3,"parameterNumberName":"V-component_of_CURRENTS"},"data":[0,0,0,0,0,0,0,0,0,0,0,0,0,0,0,0,0,0,0,0,0,0,0,0,0,0,0,0,0,0,0,0,0,0,0,0,0,0,0,0,0,0,0,0,0,0,0,0,0,0,0,0,0,0,0,0,0,0,-0.0269,-0.0269,0,-0.0223,-0.0222,-0.0221,-0.0186,-0.0186,-0.0186,-0.0186,-0.0087,-0.0085,-0.0082,0,0,0,0,0,0,0,0,0,0,0,0,0,-0.0285,-0.0285,-0.0269,-0.0269,-0.0268,-0.0223,-0.0222,-0.0221,-0.0186,-0.0186,-0.0186,-0.0186,-0.0088,-0.0085,-0.0082,0,0,0,0,0,0,0,0,0,0,0,0,0,-0.0261,-0.0285,-0.0269,-0.0246,-0.0244,-0.0223,-0.0222,-0.0221,-0.0186,-0.0186,-0.0186,-0.0185,-0.0089,-0.0085,-0.0081,-0.0064,0,0,-0.007,-0.0069,0,0,0,0,0,0,0,0,-0.0262,-0.026,-0.025,-0.0248,-0.0245,-0.0211,-0.0191,-0.0166,-0.0186,-0.0207,-0.0186,-0.0185,-0.0125,-0.0118,-0.0109,-0.006,-0.0056,-0.007,-0.0068,-0.0066,-0.0065,0,0,0,0,0,0,0,-0.0264,-0.0262,-0.0249,-0.025,-0.0247,-0.0224,-0.022,-0.0186,-0.0166,-0.0205,-0.0203,-0.02,-0.0123,-0.0112,-0.0106,-0.0054,-0.007,-0.0067,-0.0064,-0.0063,0.0011,0.0011,0,0,0,0,0,0,-0.0275,-0.0264,-0.0251,-0.0248,-0.0255,-0.0224,-0.022,-0.0221,-0.0167,-0.016,-0.02,-0.0198,-0.0119,-0.011,-0.0102,-0.0085,-0.0066,-0.0063,-0.0061,0.0011,0.0011,0.0011,0,0,0,0,0,0,-0.0276,-0.0275,-0.0253,-0.0255,-0.0251,-0.0225,-0.0226,-0.022,-0.0214,-0.0164,-0.0155,-0.02,-0.0118,-0.0107,-0.0078,-0.0081,-0.0061,-0.0058,0.0011,0.0011,0.0011,-0.0046,0,0,0,0,0,0,-0.0277,-0.0275,-0.0283,-0.0257,-0.0252,-0.0248,-0.0226,-0.022,-0.0213,-0.0211,-0.0161,-0.0151,-0.0117,-0.0084,-0.0074,-0.0075,-0.0055,0.0012,0.0011,0.0011,-0.0044,-0.0049,-0.0053,0,0,0,0,0,-0.0277,-0.0288,-0.0284,-0.0282,-0.0262,-0.0248,-0.0244,-0.0222,-0.0214,-0.0215,-0.0181,-0.0153,-0.008,-0.0081,-0.007,-0.007,0.0012,0.0011,0.0011,-0.0042,-0.0048,-0.0052,0,0,0,0,0,0,-0.0296,-0.0285,-0.0279,-0.0286,-0.0273,-0.0243,-0.0244,-0.0229,-0.0204,-0.0202,-0.0154,-0.0142,-0.0119,-0.0087,-0.009,-0.005,-0.003,-0.0028,-0.0074,-0.0079,-0.0083,-0.009,-0.0052,0,0,0,0,0,-0.0306,-0.0313,-0.0295,-0.0301,-0.0298,-0.0273,-0.0266,-0.0253,-0.0227,-0.0217,-0.0182,-0.0145,-0.0112,-0.0091,-0.006,-0.0035,0.0004,-0.0029,-0.0033,-0.0037,-0.0035,0.0023,0.0025,0.0009,0.0009,0.0009,0,0,-0.0314,-0.031,-0.0314,-0.0306,-0.0294,-0.0296,-0.0268,-0.0264,-0.0263,-0.0209,-0.0196,-0.016,-0.0111,-0.0087,-0.0073,-0.0059,-0.0014,-0.0037,-0.0041,-0.0037,0.0023,0.0025,0.0026,0.0008,0.0008,0.0009,0,0,-0.0336,-0.0333,-0.0347,-0.0341,-0.0333,-0.0317,-0.032,-0.0297,-0.0285,-0.0269,-0.023,-0.0194,-0.015,-0.0109,-0.0084,-0.009,-0.0042,-0.0086,-0.0105,-0.0049,-0.0047,-0.0045,-0.0004,0.0002,-0.0083,-0.0083,-0.0083,0,-0.0347,-0.0362,-0.0348,-0.0359,-0.0359,-0.0332,-0.0344,-0.0328,-0.0297,-0.0285,-0.0274,-0.0198,-0.0158,-0.0114,-0.0118,-0.0098,-0.0066,-0.0092,-0.0054,-0.0051,-0.0047,-0.0006,0.0002,-0.0086,-0.0085,-0.0085,-0.0085,0,-0.0376,-0.0391,-0.0398,-0.0405,-0.0402,-0.0408,-0.0388,-0.0383,-0.0366,-0.034,-0.0301,-0.0242,-0.0193,-0.0177,-0.0149,-0.0107,-0.0093,-0.0071,-0.0043,-0.0049,-0.0006,0.0003,-0.009,-0.0089,-0.0088,-0.0087,0,0,-0.0395,-0.0416,-0.042,-0.0434,-0.0429,-0.043,-0.0432,-0.0418,-0.0413,-0.0374,-0.0352,-0.0291,-0.0252,-0.022,-0.0173,-0.0122,-0.0075,-0.0093,-0.0089,-0.0056,0.0039,0.0024,0.0033,-0.0047,-0.0045,-0.0044,0.0056,0,-0.0423,-0.0462,-0.0459,-0.0489,-0.0506,-0.0487,-0.0491,-0.0474,-0.0444,-0.0415,-0.0346,-0.0306,-0.027,-0.0243,-0.0188,-0.0101,-0.0052,-0.0105,0.0043,0.0048,0.0034,0.0043,-0.0039,0.0063,0.0065,0.0067,0.0068,0,-0.0451,-0.0476,-0.0517,-0.0538,-0.0543,-0.0557,-0.0554,-0.0547,-0.0498,-0.0474,-0.0416,-0.0357,-0.0278,-0.0247,-0.0102,-0.0139,-0.0059,0.0009,0.0015,0.0029,0.005,0.0076,0.0085,0.0084,0.0083,0.0081,0.008,0,-0.0477,-0.0513,-0.055,-0.0558,-0.0577,-0.0594,-0.0597,-0.0568,-0.0559,-0.0501,-0.0481,-0.038,-0.0323,-0.0212,-0.008,-0.0087,0.008,0.0094,0.0157,0.0157,0.0166,0.0162,0.0198,0.0198,0.0198,0.0198,0.0198,0,-0.0503,-0.0533,-0.0573,-0.0594,-0.0637,-0.063,-0.0651,-0.0639,-0.0606,-0.0584,-0.0509,-0.0459,-0.031,-0.0198,-0.0085,0.006,0.0081,0.0157,0.0186,0.0137,0.0129,0.0172,0.0167,0.0202,0.0201,0.02,0.0199,0,-0.052,-0.0547,-0.0594,-0.0636,-0.0653,-0.0681,-0.0702,-0.0703,-0.0673,-0.064,-0.0623,-0.0507,-0.0361,-0.0215,-0.0021,0.0054,0.0196,0.0243,0.017,0.0193,0.0233,0.0225,0.0321,0.0322,0.0322,0.0322,0.0322,0,-0.053,-0.056,-0.0629,-0.0664,-0.069,-0.0729,-0.0752,-0.0741,-0.0732,-0.0659,-0.0638,-0.0503,-0.0412,-0.015,-0.0006,0.02,0.0228,0.0288,0.0267,0.0229,0.0249,0.0239,0.0231,0.0323,0.0323,0.0323,0.0323,0,-0.0546,-0.0577,-0.0617,-0.0695,-0.074,-0.0778,-0.0806,-0.0805,-0.0768,-0.0748,-0.0626,-0.0489,-0.0327,-0.0137,0.0018,0.0166,0.024,0.0292,0.0292,0.0273,0.0233,0.0249,0.024,0.0324,0.0324,0.0324,0.0324,0,-0.0554,-0.059,-0.065,-0.071,-0.0771,-0.0805,-0.082,-0.0794,-0.0777,-0.0693,-0.0646,-0.0471,-0.0363,-0.0153,-0.0006,0.0128,0.0161,0.0195,0.0201,0.0201,0.0129,0.0057,0.0125,0,0,0,0,0,-0.0555,-0.0598,-0.0659,-0.0726,-0.0783,-0.0812,-0.0841,-0.084,-0.081,-0.0724,-0.0682,-0.0525,-0.029,-0.0184,-0.0049,-0.0018,0.0164,0.0141,0.0201,0.0331,0.033,0.0263,0,0,0,0,0,0,-0.0559,-0.062,-0.0655,-0.072,-0.076,-0.0813,-0.0829,-0.0811,-0.0756,-0.0706,-0.0574,-0.0501,-0.0272,-0.0359,-0.0044,-0.0005,0.0048,0.0252,0.0255,0.0332,0.033,0.0329,0.026,0,0,0,0,0]}]]